Location: Home
(42.5358°N, 72.7383°W)
Time: 10:25:18
(UTC-05:00)

Transit 4A - Pass Details

Date: 05 December 2021
Orbit: 864 x 981 km, 66.8° (Epoch: 21 January)

Event Time Altitude Azimuth Distance (km) Brightness Sun altitude
Rises 16:54:36 0° 153° (SSE) 3,443 10.9 -6.8°
Reaches altitude 10° 16:58:36 10° 125° (SE) 2,528 9.9 -7.5°
Maximum altitude 17:00:59 13° 101° (E) 2,357 9.5 -7.9°
Drops below altitude 10° 17:03:23 10° 77° (ENE) 2,562 9.6 -8.3°
Enters shadow 17:03:33 10° 75° (ENE) 2,590 9.6 -8.4°
